(370524) = 2003 SM295 = 2008 QR38

Discovered at Anderson Mesa on 2003-09-29 by LONEOS.

Orbit

Orbit type: Main Belt

Note: WebGL enabled browser required.

epoch2023-09-13.0
epoch JD2460200.5
perihelion date2018-12-05.82296
perihelion JD2458458.32296
argument of perihelion (°)40.89519
ascending node (°)331.12763
inclination (°)9.33205
eccentricity0.1051973
perihelion distance (AU)2.6278388
Tisserand w.r.t. Jupiter3.2
ΔV w.r.t. Earth (km/sec)10.5
semimajor axis (AU)2.9367802
mean anomaly (°)341.18425
mean daily motion (°/day)0.19583790
aphelion distance (AU)3.246
period (years)5.03
P-vector [x]0.97388098
P-vector [y]0.14192324
P-vector [z]0.17723891
Q-vector [x]-0.21313182
Q-vector [y]0.84056152
Q-vector [z]0.49802727
absolute magnitude16.47
phase slope0.15
uncertainty0
referenceMPEC 2023-X152
observations used267
oppositions11
arc length (days)7385
first opposition used2003
last opposition used2023
residual rms (arc-secs)0.73
perturbers coarse indicatorM-v
perturbers precise indicator003Ek
first observation date used2003-09-17.0
last observation date used2023-12-06.0
computer nameMPCLINUX
JD of orbit computation2456581.581425
perihelion JD uncertainty (days)4.2260E-04
argument of perihelion uncertainty (°)1.3469E-04
ascending node uncertainty (°)9.5172E-05
inclination uncertainty (°)2.5698E-05
eccentricity uncertainty 2.8450E-07
perihelion distance uncertainty (AU)8.4673E-07
Minimum Orbit Intersection Distances (in AU)
for orbit epoch: 2460200.5, reference: E2023-XF2
Mercury2.27725
Venus1.91403
Earth1.63393
Mars1.2417
Jupiter2.22341
Saturn6.10777
Uranus15.2374
Neptune27.234

Observations

273 total observations over interval: 2003 09 17.26789 – 2023 12 06.155298
These data are available for download (format description).

Date (UT) J2000 RA J2000 Dec Magn Location Ref
2003 09 17.26789 00 23 08.52 +11 12 05.1 19.9   644 – Palomar Mountain/NEAT MPS 96374
2003 09 17.34637 00 23 04.47 +11 12 01.4 19.4   644 – Palomar Mountain/NEAT MPS 96374
2003 09 17.41024 00 23 01.19 +11 11 58.4 19.4   644 – Palomar Mountain/NEAT MPS 96374
2003 09 19.39727 00 21 21.09 +11 10 03.1 20.5 V 691 – Steward Observatory, Kitt Peak-Spacewatch MPS 96374
2003 09 19.42465 00 21 19.65 +11 10 01.2 20.0 V 691 – Steward Observatory, Kitt Peak-Spacewatch MPS 96374
2003 09 19.45780 00 21 17.91 +11 09 58.8 20.5 V 691 – Steward Observatory, Kitt Peak-Spacewatch MPS 96374
2003 09 29.15358 00 12 48.70 +10 53 06.8 19.6 R 699 – Lowell Observatory-LONEOS MPS 87383
2003 09 29.16187 00 12 48.14 +10 53 06.4   699 – Lowell Observatory-LONEOS MPS 87383
2003 09 29.17020 00 12 47.69 +10 53 05.7   699 – Lowell Observatory-LONEOS MPS 87383
2003 09 29.17852 00 12 47.29 +10 53 04.8   699 – Lowell Observatory-LONEOS MPS 87383
2003 09 30.25476 00 11 50.03 +10 50 33.1 19.8   704 – Lincoln Laboratory ETS, New Mexico MPS 87383
2003 09 30.28067 00 11 48.54 +10 50 30.5 19.8   704 – Lincoln Laboratory ETS, New Mexico MPS 87383
2003 09 30.29389 00 11 47.75 +10 50 29.1 19.8   704 – Lincoln Laboratory ETS, New Mexico MPS 87383
2008 08 24.34333 00 20 15.89 +08 19 25.0   691 – Steward Observatory, Kitt Peak-Spacewatch MPS 260272
2008 08 24.36089 00 20 15.32 +08 19 27.2   691 – Steward Observatory, Kitt Peak-Spacewatch MPS 260272
2008 08 24.37845 00 20 14.79 +08 19 29.1   691 – Steward Observatory, Kitt Peak-Spacewatch MPS 260272
2008 09 04.29913 00 13 36.62 +08 31 09.3 20.6 V 691 – Steward Observatory, Kitt Peak-Spacewatch MPS 260272
2008 09 04.31668 00 13 35.83 +08 31 09.6 20.4 V 691 – Steward Observatory, Kitt Peak-Spacewatch MPS 260272
2008 09 04.33426 00 13 35.07 +08 31 09.5 20.0 V 691 – Steward Observatory, Kitt Peak-Spacewatch MPS 260272
2008 09 28.34549 23 53 30.01 +08 00 00.0 19.8 V 703 – Catalina Sky Survey MPS 260272
2008 09 28.35273 23 53 29.54 +07 59 57.0 19.8 V 703 – Catalina Sky Survey MPS 260272
2008 09 28.36003 23 53 29.25 +07 59 57.8 20.4 V 703 – Catalina Sky Survey MPS 260272
2008 09 28.36723 23 53 28.78 +07 59 56.4 19.4 V 703 – Catalina Sky Survey MPS 260272
2008 10 06.28091 23 46 53.72 +07 38 39.1 19.5 V G96 – Mt. Lemmon Survey MPS 260272
2008 10 06.29093 23 46 53.18 +07 38 37.8 19.6 V G96 – Mt. Lemmon Survey MPS 260272
2008 10 06.30095 23 46 52.71 +07 38 35.9 19.7 V G96 – Mt. Lemmon Survey MPS 260272
2008 10 06.31094 23 46 52.21 +07 38 34.1 19.6 V G96 – Mt. Lemmon Survey MPS 260272
2008 10 29.24868 23 33 49.82 +06 41 09.4 20.2 V G96 – Mt. Lemmon Survey MPS 261429
2008 10 29.25633 23 33 49.68 +06 41 09.0 19.8 V G96 – Mt. Lemmon Survey MPS 261429
2008 10 29.26396 23 33 49.53 +06 41 08.5 19.6 V G96 – Mt. Lemmon Survey MPS 261429
2008 10 29.27156 23 33 49.39 +06 41 07.2 20.2 V G96 – Mt. Lemmon Survey MPS 261429
2009 12 20.31738 07 42 52.59 +31 30 47.0 20.7 V G96 – Mt. Lemmon Survey MPS 308605
2009 12 20.32371 07 42 52.27 +31 30 47.6 20.5 V G96 – Mt. Lemmon Survey MPS 308605
2009 12 20.33009 07 42 51.94 +31 30 48.4 20.5 V G96 – Mt. Lemmon Survey MPS 308605
2009 12 20.33649 07 42 51.58 +31 30 48.9 20.8 V G96 – Mt. Lemmon Survey MPS 308605
2010 01 07.32839 07 25 19.81 +31 46 12.1 20.4 V G96 – Mt. Lemmon Survey MPS 309285
2010 01 07.33553 07 25 19.30 +31 46 12.2 20.7 V G96 – Mt. Lemmon Survey MPS 309285
2010 01 07.34277 07 25 18.84 +31 46 12.1 20.5 V G96 – Mt. Lemmon Survey MPS 309285
2010 01 07.35002 07 25 18.37 +31 46 11.9 20.2 V G96 – Mt. Lemmon Survey MPS 309285
2010 01 15.22921 07 17 04.70 +31 42 10.8 20.1 V 703 – Catalina Sky Survey MPS 407704
2010 01 15.23552 07 17 04.20 +31 42 09.9 21.2 V 703 – Catalina Sky Survey MPS 407704
2010 01 15.24187 07 17 03.80 +31 42 06.5 21.3 V 703 – Catalina Sky Survey MPS 407704
2010 01 15.24824 07 17 03.12 +31 42 04.7 21.2 V 703 – Catalina Sky Survey MPS 407704
2011 03 31.35763 11 53 38.394 -07 19 26.06 21.2 w F51 – Pan-STARRS 1, Haleakala MPS 377115
2011 03 31.38971 11 53 36.795 -07 19 19.12 21.2 w F51 – Pan-STARRS 1, Haleakala MPS 377115
2011 03 31.40528 11 53 36.027 -07 19 15.80 21.4 w F51 – Pan-STARRS 1, Haleakala MPS 377115
2013 09 10.49946 23 49 36.055 +05 32 58.51 20.0 w F51 – Pan-STARRS 1, Haleakala MPS 476182
2013 09 10.51452 23 49 35.260 +05 32 57.41 19.8 w F51 – Pan-STARRS 1, Haleakala MPS 476182
2013 09 10.52932 23 49 34.482 +05 32 56.38 19.6 w F51 – Pan-STARRS 1, Haleakala MPS 476182
2013 09 10.54384 23 49 33.721 +05 32 55.34 19.9 w F51 – Pan-STARRS 1, Haleakala MPS 476182
2013 09 15.27441 23 45 29.34 +05 26 07.7 19.8 V G96 – Mt. Lemmon Survey MPS 476182
2013 09 15.27970 23 45 29.06 +05 26 07.1 19.9 V G96 – Mt. Lemmon Survey MPS 476182
2013 09 15.28500 23 45 28.75 +05 26 06.5 19.9 V G96 – Mt. Lemmon Survey MPS 476182
2013 09 15.29025 23 45 28.46 +05 26 06.2 19.4 V G96 – Mt. Lemmon Survey MPS 476182
2013 09 24.15587 23 37 42.93 +05 08 17.4 19.2 V G96 – Mt. Lemmon Survey MPS 478705
2013 09 24.16123 23 37 42.62 +05 08 16.6 19.3 V G96 – Mt. Lemmon Survey MPS 478705
2013 09 24.16664 23 37 42.33 +05 08 15.9 19.8 V G96 – Mt. Lemmon Survey MPS 478705
2013 09 24.17209 23 37 42.00 +05 08 15.1 20.1 V G96 – Mt. Lemmon Survey MPS 478705
2013 10 01.30752 23 31 43.74 +04 50 58.1 20.2 V 703 – Catalina Sky Survey MPS 479997
2013 10 01.31289 23 31 43.44 +04 50 57.2 20.6 V 703 – Catalina Sky Survey MPS 479997
2013 10 01.31840 23 31 43.20 +04 50 56.7 20.0 V 703 – Catalina Sky Survey MPS 479997
2013 10 01.32391 23 31 42.91 +04 50 55.7 20.1 V 703 – Catalina Sky Survey MPS 479997
2013 10 01.33058 23 31 42.56 +04 50 54.5 20.0 V 703 – Catalina Sky Survey MPS 479997
2013 10 01.33463 23 31 42.42 +04 50 52.9 19.9 V 703 – Catalina Sky Survey MPS 479997
2013 10 01.33874 23 31 42.13 +04 50 53.3 19.8 V 703 – Catalina Sky Survey MPS 479997
2013 10 01.34284 23 31 41.97 +04 50 53.1 19.2 V 703 – Catalina Sky Survey MPS 479997
2014 12 16.45302 07 28 11.304 +32 37 00.05 20.6 w F51 – Pan-STARRS 1, Haleakala MPS 558465
2014 12 16.46602 07 28 10.637 +32 37 01.34 20.4 w F51 – Pan-STARRS 1, Haleakala MPS 558465
2014 12 16.47896 07 28 09.965 +32 37 02.46 20.4 w F51 – Pan-STARRS 1, Haleakala MPS 558465
2014 12 16.49203 07 28 09.291 +32 37 03.69 20.9 w F51 – Pan-STARRS 1, Haleakala MPS 558465
2014 12 26.53406 07 18 50.330 +32 48 39.21 20.1 w F51 – Pan-STARRS 1, Haleakala MPS 559974
2014 12 26.54633 07 18 49.560 +32 48 39.70 20.5 w F51 – Pan-STARRS 1, Haleakala MPS 559974
2014 12 26.55871 07 18 48.790 +32 48 39.95 20.9 w F51 – Pan-STARRS 1, Haleakala MPS 559974
2015 01 23.24818 06 50 46.28 +32 22 07.7 20.9 V G96 – Mt. Lemmon Survey MPS 569473
2015 01 23.25383 06 50 45.99 +32 22 06.5 21.0 V G96 – Mt. Lemmon Survey MPS 569473
2015 01 23.25947 06 50 45.61 +32 22 05.8 20.9 V G96 – Mt. Lemmon Survey MPS 569473
2015 01 23.26511 06 50 45.39 +32 22 05.3 20.6 V G96 – Mt. Lemmon Survey MPS 569473
2016 01 18.60595 12 20 26.755 -06 11 17.59 22.2 w F51 – Pan-STARRS 1, Haleakala MPS 673847
2016 01 18.61784 12 20 26.829 -06 11 20.73 22.2 w F51 – Pan-STARRS 1, Haleakala MPS 673847
2016 01 18.62972 12 20 26.912 -06 11 23.08 22.0 w F51 – Pan-STARRS 1, Haleakala MPS 673847
2016 01 18.64160 12 20 26.971 -06 11 26.03 21.6 w F51 – Pan-STARRS 1, Haleakala MPS 673847
2016 02 04.54249 12 19 26.028 -07 00 03.82 21.8 w F51 – Pan-STARRS 1, Haleakala MPS 678797
2016 02 04.55481 12 19 25.836 -07 00 05.28 21.9 w F51 – Pan-STARRS 1, Haleakala MPS 678797
2016 02 04.57948 12 19 25.433 -07 00 07.93 21.5 w F51 – Pan-STARRS 1, Haleakala MPS 678797
2016 03 10.40604 11 59 43.540 -06 45 49.28 20.6 w F51 – Pan-STARRS 1, Haleakala MPS 692399
2016 03 10.41832 11 59 42.917 -06 45 47.29 20.9 w F51 – Pan-STARRS 1, Haleakala MPS 692399
2016 03 10.44277 11 59 41.707 -06 45 43.72 21.2 w F51 – Pan-STARRS 1, Haleakala MPS 692399
2016 03 11.41251 11 58 54.617 -06 43 17.05 20.8 w F51 – Pan-STARRS 1, Haleakala MPS 692399
2016 03 11.42569 11 58 53.952 -06 43 15.08 20.9 w F51 – Pan-STARRS 1, Haleakala MPS 692399
2016 03 11.43887 11 58 53.286 -06 43 12.98 21.2 w F51 – Pan-STARRS 1, Haleakala MPS 692399
2016 03 11.45205 11 58 52.625 -06 43 10.97 21.1 w F51 – Pan-STARRS 1, Haleakala MPS 692399
2016 03 11.46112 11 58 52.175 -06 43 09.76 21.1 w F51 – Pan-STARRS 1, Haleakala MPS 695731
